Flag for U.S.A. Weather past 2 weeks in Pomona, California, U.S.A.

Now
68 °F

Mostly cloudy.


Feels Like: 68 °F
Forecast: 65 / 83 °F
Wind: 3 mph from Northwest

Location: Chino Airport

Current Time: Sep 19, 2014 at 5:42:24 AM

Latest Report: Sep 19, 2014 at 4:53 AM


Visibility: 10 mi

Pressure: 29.88 "Hg

Humidity: 78%

Dew point: 61 °F

Location of PomonaLocation

Historic Weather in Pomona — Graph

°F

Pomona temperature yesterday

Maximum temperature yesterday: 86 °F (at 1:53 PM)
Minimum temperature yesterday: 65 °F (at 6:53 AM)
Average temperature yesterday: 74 °F

Past Weeks' High & Low Weather Summary

 TemperatureHumidityPressure
High108 °F (Sep 14, 1:53 PM)97% (Sep 5, 8:00 AM)29.93 "Hg (Sep 5, 8:00 AM)
Low59 °F (Sep 10, 4:53 AM)16% (Sep 10, 12:53 PM)29.66 "Hg (Sep 14, 3:53 PM)
Average80 °F51%29.80 "Hg
* Reported Sep 4 3:53 AM — Sep 19 3:53 AM, Pomona, Weather by CustomWeather, © 2014

Note: Actual official high and low records may vary slightly from our data, if they occured in-between our weather recording intervals... More about our weather records

Advertising

Pomona weather history for previous 24 hours

 ConditionsComfort  
Time TempWeatherWind HumidityBarometerVisibility
3:53 AM
Sep 19
68 °FOvercast.7 mph82%29.87 "Hg10 mi
2:53 AM69 °FOvercast.5 mph79%29.87 "Hg10 mi
1:53 AM69 °FOvercast.6 mph76%29.87 "Hg10 mi
12:53 AM67 °FPassing clouds.3 mph87%29.87 "Hg8 mi
11:53 PM
Sep 18
66 °FClear.3 mph84%29.87 "Hg10 mi
10:53 PM68 °FClear.8 mph82%29.86 "Hg10 mi
9:53 PM69 °FClear.9 mph81%29.86 "Hg10 mi
8:53 PM71 °FClear.12 mph76%29.85 "Hg10 mi
7:53 PM73 °FClear.12 mph74%29.83 "Hg10 mi
6:53 PM76 °FPassing clouds.15 mph67%29.81 "Hg10 mi
5:53 PM80 °FPassing clouds.14 mph58%29.80 "Hg10 mi
4:53 PM83 °FPassing clouds.15 mph51%29.79 "Hg10 mi
3:53 PM86 °FPassing clouds.15 mph46%29.79 "Hg10 mi
2:53 PM86 °FPassing clouds.12 mph46%29.80 "Hg10 mi
1:53 PM86 °FPassing clouds.13 mph43%29.83 "Hg10 mi
12:53 PM84 °FPassing clouds.12 mph45%29.85 "Hg10 mi
11:53 AM81 °FPassing clouds.10 mph47%29.87 "Hg10 mi
10:53 AM80 °FSunny.10 mph47%29.88 "Hg10 mi
9:53 AM77 °FSunny.10 mph50%29.89 "Hg10 mi
8:53 AM73 °FPassing clouds.5 mph66%29.88 "Hg10 mi
7:53 AM69 °FPassing clouds.5 mph79%29.87 "Hg10 mi
6:53 AM65 °FPassing clouds.3 mph85%29.85 "Hg10 mi
5:53 AM66 °FClear.6 mph84%29.82 "Hg9 mi
Weather by CustomWeather, © 2014

See weather overviewHow to use our weather pages